When you browse on this site, cookies collect data to enhance your experience and personalize the content and advertising you see.
Visit our Privacy Policy to learn more. By continuing to use the site, you agree to this use of cookies and data.
  • în România
  • Lista ţărilor
  • Pe 7 zile
  • Temperatura apei
  • Meteo pe hartă
  • Widget-uri
  • user-avatar
    Intrare

    Meteo pe oră la Mazatenango

    Astăzi, 21 August, Miercuri

    Timp Temperatura Precipitaţii Vânt Presiune Umiditate
    00:00 +24°C° 0.4 mm 1 m/s 727 mmHg 92%
    01:00 +24°C° 0 mm 1 m/s 727 mmHg 91%
    02:00 +24°C° 0 mm 1 m/s 726 mmHg 91%
    03:00 +24°C° 0 mm 2 m/s 726 mmHg 90%
    04:00 +24°C° 0 mm 1 m/s 726 mmHg 88%
    05:00 +24°C° 0 mm 1 m/s 726 mmHg 86%
    06:00 +24°C° 0 mm 1 m/s 726 mmHg 85%
    07:00 +26°C° 0 mm 1 m/s 726 mmHg 78%
    08:00 +28°C° 0 mm 1 m/s 727 mmHg 71%
    09:00 +30°C° 0 mm 1 m/s 727 mmHg 64%
    10:00 +31°C° 0.2 mm 1 m/s 727 mmHg 64%
    11:00 +32°C° 0.2 mm 2 m/s 727 mmHg 64%
    12:00 +32°C° 0.2 mm 2 m/s 727 mmHg 65%
    13:00 +32°C° 1.5 mm 2 m/s 726 mmHg 71%
    14:00 +31°C° 1.5 mm 1 m/s 726 mmHg 77%
    15:00 +30°C° 1.5 mm 1 m/s 725 mmHg 83%
    16:00 +29°C° 2.4 mm 1 m/s 725 mmHg 86%
    17:00 +28°C° 2.4 mm 1 m/s 725 mmHg 90%
    18:00 +26°C° 2.4 mm 1 m/s 726 mmHg 93%
    19:00 +26°C° 0.8 mm 1 m/s 726 mmHg 93%
    20:00 +25°C° 0.8 mm 2 m/s 727 mmHg 92%
    21:00 +25°C° 0.8 mm 2 m/s 727 mmHg 92%
    22:00 +24°C° 0.1 mm 2 m/s 727 mmHg 91%
    23:00 +24°C° 0.1 mm 2 m/s 727 mmHg 90%

    Mâine, 22 August, Joi

    Timp Temperatura Precipitaţii Vânt Presiune Umiditate
    00:00 +24°C° 0.1 mm 2 m/s 727 mmHg 89%
    01:00 +24°C° 0 mm 2 m/s 727 mmHg 87%
    02:00 +24°C° 0 mm 2 m/s 726 mmHg 85%
    03:00 +24°C° 0 mm 1 m/s 726 mmHg 83%
    04:00 +24°C° 0 mm 1 m/s 726 mmHg 81%
    05:00 +24°C° 0 mm 1 m/s 726 mmHg 80%
    06:00 +24°C° 0 mm 1 m/s 726 mmHg 78%
    07:00 +26°C° 0 mm 1 m/s 727 mmHg 74%
    08:00 +28°C° 0 mm 1 m/s 727 mmHg 70%
    09:00 +28°C° 0 mm 0 m/s 728 mmHg 65%
    10:00 +31°C° 0.1 mm 1 m/s 727 mmHg 64%
    11:00 +31°C° 0.1 mm 1 m/s 727 mmHg 63%
    12:00 +32°C° 0.1 mm 2 m/s 727 mmHg 62%
    13:00 +32°C° 0.3 mm 2 m/s 726 mmHg 65%
    14:00 +31°C° 0.3 mm 1 m/s 726 mmHg 69%
    15:00 +31°C° 0.3 mm 1 m/s 726 mmHg 72%
    16:00 +30°C° 0.4 mm 1 m/s 726 mmHg 78%
    17:00 +29°C° 0.4 mm 1 m/s 725 mmHg 84%
    18:00 +25°C° 0.4 mm 0 m/s 725 mmHg 91%
    19:00 +25°C° 0 mm 0 m/s 726 mmHg 91%
    20:00 +26°C° 0 mm 1 m/s 727 mmHg 91%
    21:00 +25°C° 0 mm 1 m/s 727 mmHg 92%
    22:00 +25°C° 0 mm 1 m/s 727 mmHg 91%
    23:00 +25°C° 0 mm 1 m/s 727 mmHg 90%

    Poimâine, 23 August, Vineri

    Timp Temperatura Precipitaţii Vânt Presiune Umiditate
    00:00 +24°C° 0 mm 2 m/s 727 mmHg 89%
    01:00 +24°C° 0 mm 2 m/s 727 mmHg 87%
    02:00 +24°C° 0 mm 2 m/s 726 mmHg 85%
    03:00 +24°C° 0 mm 2 m/s 726 mmHg 84%
    04:00 +24°C° 0 mm 1 m/s 726 mmHg 81%
    05:00 +24°C° 0 mm 1 m/s 726 mmHg 79%
    06:00 +24°C° 0 mm 1 m/s 726 mmHg 77%
    07:00 +26°C° 0 mm 1 m/s 727 mmHg 72%
    08:00 +28°C° 0 mm 1 m/s 727 mmHg 67%
    09:00 +31°C° 0 mm 1 m/s 728 mmHg 62%
    10:00 +31°C° 0.2 mm 1 m/s 728 mmHg 62%
    11:00 +32°C° 0.2 mm 2 m/s 727 mmHg 62%
    12:00 +34°C° 0.2 mm 2 m/s 727 mmHg 62%
    13:00 +32°C° 1.4 mm 2 m/s 727 mmHg 65%
    14:00 +32°C° 1.4 mm 2 m/s 726 mmHg 68%
    15:00 +32°C° 1.4 mm 1 m/s 726 mmHg 72%
    16:00 +31°C° 0.9 mm 1 m/s 726 mmHg 77%
    17:00 +29°C° 0.9 mm 1 m/s 725 mmHg 83%
    18:00 +28°C° 0.9 mm 1 m/s 725 mmHg 89%
    19:00 +27°C° 0.6 mm 1 m/s 726 mmHg 88%
    20:00 +26°C° 0.6 mm 1 m/s 726 mmHg 88%
    21:00 +25°C° 0.6 mm 2 m/s 727 mmHg 88%
    22:00 +25°C° 0 mm 2 m/s 727 mmHg 86%
    23:00 +24°C° 0 mm 2 m/s 727 mmHg 83%

    24 August, Sâmbătă

    Timp Temperatura Precipitaţii Vânt Presiune Umiditate
    00:00 +24°C° 0 mm 2 m/s 727 mmHg 81%
    01:00 +24°C° 0 mm 2 m/s 726 mmHg 79%
    02:00 +24°C° 0 mm 2 m/s 726 mmHg 77%
    03:00 +24°C° 0 mm 1 m/s 726 mmHg 75%
    04:00 +24°C° 0 mm 2 m/s 726 mmHg 73%
    05:00 +24°C° 0 mm 2 m/s 726 mmHg 71%
    06:00 +24°C° 0 mm 2 m/s 726 mmHg 69%
    07:00 +26°C° 0 mm 1 m/s 727 mmHg 66%
    08:00 +29°C° 0 mm 1 m/s 727 mmHg 63%
    09:00 +31°C° 0 mm 1 m/s 728 mmHg 60%
    10:00 +32°C° 0 mm 1 m/s 727 mmHg 59%
    11:00 +34°C° 0 mm 2 m/s 727 mmHg 58%
    12:00 +35°C° 0 mm 2 m/s 727 mmHg 57%
    13:00 +34°C° 0.5 mm 2 m/s 726 mmHg 63%
    14:00 +32°C° 0.5 mm 2 m/s 726 mmHg 70%
    15:00 +31°C° 0.5 mm 2 m/s 725 mmHg 76%
    16:00 +30°C° 0.4 mm 2 m/s 725 mmHg 80%
    17:00 +29°C° 0.4 mm 1 m/s 725 mmHg 85%
    18:00 +28°C° 0.4 mm 1 m/s 725 mmHg 90%
    19:00 +27°C° 0.1 mm 1 m/s 726 mmHg 90%
    20:00 +27°C° 0.1 mm 1 m/s 726 mmHg 90%
    21:00 +26°C° 0.1 mm 1 m/s 727 mmHg 90%
    22:00 +26°C° 0 mm 1 m/s 727 mmHg 88%
    23:00 +25°C° 0 mm 2 m/s 727 mmHg 86%

    25 August, Duminică

    Timp Temperatura Precipitaţii Vânt Presiune Umiditate
    00:00 +25°C° 0 mm 2 m/s 727 mmHg 84%
    01:00 +24°C° 0 mm 2 m/s 726 mmHg 80%
    02:00 +24°C° 0 mm 2 m/s 726 mmHg 76%
    03:00 +24°C° 0 mm 2 m/s 725 mmHg 71%
    04:00 +24°C° 0 mm 2 m/s 725 mmHg 70%
    05:00 +24°C° 0 mm 2 m/s 726 mmHg 68%
    06:00 +24°C° 0 mm 2 m/s 726 mmHg 67%
    07:00 +26°C° 0 mm 2 m/s 726 mmHg 65%
    08:00 +29°C° 0 mm 1 m/s 726 mmHg 63%
    09:00 +31°C° 0 mm 1 m/s 727 mmHg 61%
    10:00 +32°C° 0.1 mm 1 m/s 727 mmHg 62%
    11:00 +32°C° 0.1 mm 2 m/s 726 mmHg 63%
    12:00 +34°C° 0.1 mm 2 m/s 726 mmHg 65%
    13:00 +32°C° 2.2 mm 2 m/s 725 mmHg 71%
    14:00 +31°C° 2.2 mm 1 m/s 725 mmHg 78%
    15:00 +30°C° 2.2 mm 1 m/s 724 mmHg 85%
    16:00 +29°C° 1.7 mm 1 m/s 724 mmHg 88%
    17:00 +28°C° 1.7 mm 1 m/s 724 mmHg 91%
    18:00 +25°C° 1.7 mm 0 m/s 725 mmHg 94%
    19:00 +26°C° 0.2 mm 1 m/s 725 mmHg 94%
    20:00 +26°C° 0.2 mm 1 m/s 725 mmHg 93%
    21:00 +25°C° 0.2 mm 1 m/s 726 mmHg 93%
    22:00 +25°C° 0 mm 1 m/s 726 mmHg 92%
    23:00 +25°C° 0 mm 1 m/s 726 mmHg 92%

    26 August, Luni

    Timp Temperatura Precipitaţii Vânt Presiune Umiditate
    00:00 +24°C° 0 mm 1 m/s 726 mmHg 91%
    01:00 +24°C° 0 mm 1 m/s 725 mmHg 90%
    02:00 +24°C° 0 mm 1 m/s 725 mmHg 89%
    03:00 +24°C° 0 mm 1 m/s 724 mmHg 87%
    04:00 +24°C° 0 mm 2 m/s 724 mmHg 85%
    05:00 +24°C° 0 mm 2 m/s 725 mmHg 82%
    06:00 +24°C° 0 mm 2 m/s 725 mmHg 79%
    07:00 +26°C° 0 mm 1 m/s 725 mmHg 74%
    08:00 +28°C° 0 mm 1 m/s 726 mmHg 70%
    09:00 +30°C° 0 mm 1 m/s 726 mmHg 65%
    10:00 +31°C° 0.1 mm 2 m/s 726 mmHg 65%
    11:00 +32°C° 0.1 mm 2 m/s 726 mmHg 65%
    12:00 +33°C° 0.1 mm 3 m/s 726 mmHg 65%
    13:00 +31°C° 2 mm 2 m/s 725 mmHg 73%
    14:00 +30°C° 2 mm 2 m/s 724 mmHg 80%
    15:00 +29°C° 2 mm 1 m/s 724 mmHg 87%
    16:00 +28°C° 1.8 mm 1 m/s 724 mmHg 91%
    17:00 +27°C° 1.8 mm 1 m/s 724 mmHg 94%
    18:00 +24°C° 1.8 mm 0 m/s 724 mmHg 97%
    19:00 +26°C° 0.4 mm 1 m/s 725 mmHg 95%
    20:00 +25°C° 0.4 mm 1 m/s 725 mmHg 94%
    21:00 +25°C° 0.4 mm 1 m/s 725 mmHg 93%
    22:00 +25°C° 0.1 mm 1 m/s 726 mmHg 92%
    23:00 +25°C° 0.1 mm 1 m/s 726 mmHg 92%
    Arată mai mult